| time (UTC) | temp F | wind direction | speed MPH | gust MPH | rain 1hr in | rain 24hr in | rain mn in | humidity % | barometer mb |
| 20260903192526 | 71 | 360 | 13.0 | 23.0 | 0.00 | 0.06 | 0.00 | 29 | 920.1 |
| 20260903192021 | 70 | 360 | 13.0 | 24.0 | 0.00 | 0.06 | 0.00 | 29 | 920.0 |
| 20260903191559 | 71 | 360 | 16.0 | 25.0 | 0.00 | 0.06 | 0.00 | 28 | 920.0 |
| 20260903191021 | 71 | 360 | 12.0 | 25.0 | 0.00 | 0.06 | 0.00 | 28 | 919.9 |
| 20260903190521 | 71 | 360 | 12.0 | 22.0 | 0.00 | 0.06 | 0.00 | 28 | 920.0 |
| 20260903185519 | 71 | 360 | 12.0 | 21.0 | 0.00 | 0.06 | 0.00 | 29 | 919.9 |
| 20260903185019 | 70 | 360 | 12.0 | 21.0 | 0.00 | 0.06 | 0.00 | 30 | 919.7 |
| 20260903184559 | 70 | 360 | 14.0 | 22.0 | 0.00 | 0.06 | 0.00 | 30 | 919.7 |
| 20260903184024 | 70 | 360 | 16.0 | 22.0 | 0.00 | 0.06 | 0.00 | 30 | 919.8 |
| 20260903183523 | 70 | 360 | 12.0 | 23.0 | 0.00 | 0.06 | 0.00 | 29 | 919.8 |
| 20260903183052 | 70 | 360 | 13.0 | 23.0 | 0.00 | 0.06 | 0.00 | 30 | 919.7 |
| 20260903182521 | 69 | 360 | 11.0 | 22.0 | 0.00 | 0.06 | 0.00 | 30 | 919.8 |
| 20260903182022 | 69 | 360 | 13.0 | 22.0 | 0.00 | 0.06 | 0.00 | 29 | 919.8 |
| 20260903181603 | 70 | 360 | 13.0 | 20.0 | 0.00 | 0.06 | 0.00 | 29 | 919.7 |
| 20260903181017 | 70 | 360 | 9.0 | 24.0 | 0.00 | 0.06 | 0.00 | 30 | 919.7 |
| 20260903180523 | 69 | 360 | 14.0 | 25.0 | 0.00 | 0.06 | 0.00 | 29 | 919.7 |
| 20260903180056 | 69 | 360 | 13.0 | 22.0 | 0.00 | 0.06 | 0.00 | 29 | 919.8 |
| 20260903175517 | 69 | 360 | 15.0 | 24.0 | 0.00 | 0.06 | 0.00 | 30 | 919.6 |
| 20260903175020 | 69 | 360 | 14.0 | 24.0 | 0.00 | 0.06 | 0.00 | 30 | 920.0 |
| 20260903174602 | 69 | 360 | 11.0 | 24.0 | 0.00 | 0.06 | 0.00 | 30 | 919.8 |
| 20260903174020 | 69 | 360 | 16.0 | 24.0 | 0.00 | 0.06 | 0.00 | 29 | 919.7 |
| 20260903173519 | 69 | 360 | 14.0 | 25.0 | 0.00 | 0.06 | 0.00 | 31 | 919.5 |
| 20260903173058 | 68 | 360 | 17.0 | 25.0 | 0.00 | 0.06 | 0.00 | 32 | 919.6 |
| 20260903172521 | 67 | 360 | 15.0 | 23.0 | 0.00 | 0.06 | 0.00 | 32 | 919.6 |
| 20260903172020 | 68 | 360 | 13.0 | 21.0 | 0.00 | 0.06 | 0.00 | 31 | 919.5 |
| 20260903171557 | 68 | 360 | 14.0 | 25.0 | 0.00 | 0.06 | 0.00 | 31 | 919.5 |
| 20260903171018 | 68 | 360 | 14.0 | 25.0 | 0.00 | 0.06 | 0.00 | 31 | 919.2 |
| 20260903170521 | 68 | 360 | 12.0 | 26.0 | 0.00 | 0.06 | 0.00 | 31 | 919.5 |
| 20260903170107 | 67 | 360 | 16.0 | 26.0 | 0.00 | 0.06 | 0.00 | 32 | 919.6 |
| 20260903165523 | 67 | 360 | 16.0 | 26.0 | 0.00 | 0.06 | 0.00 | 32 | 919.5 |
| 20260903165019 | 67 | 360 | 14.0 | 24.0 | 0.00 | 0.06 | 0.00 | 33 | 919.5 |
| 20260903164603 | 67 | 360 | 11.0 | 21.0 | 0.00 | 0.06 | 0.00 | 33 | 919.3 |
| 20260903164021 | 67 | 360 | 10.0 | 17.0 | 0.00 | 0.06 | 0.00 | 33 | 919.6 |
| 20260903163523 | 68 | 360 | 11.0 | 18.0 | 0.00 | 0.06 | 0.00 | 34 | 919.4 |
| 20260903163059 | 67 | 360 | 10.0 | 18.0 | 0.00 | 0.06 | 0.00 | 36 | 919.3 |
| 20260903162519 | 66 | 360 | 10.0 | 16.0 | 0.00 | 0.06 | 0.00 | 36 | 919.4 |
| 20260903162027 | 66 | 360 | 8.0 | 21.0 | 0.00 | 0.06 | 0.00 | 38 | 919.3 |
| 20260903161558 | 66 | 360 | 12.0 | 21.0 | 0.00 | 0.06 | 0.00 | 37 | 919.3 |
| 20260903161021 | 66 | 360 | 7.0 | 17.0 | 0.00 | 0.06 | 0.00 | 37 | 919.2 |
| 20260903160521 | 65 | 360 | 7.0 | 18.0 | 0.00 | 0.06 | 0.00 | 39 | 919.4 |
| 20260903160054 | 65 | 360 | 11.0 | 18.0 | 0.00 | 0.06 | 0.00 | 38 | 919.3 |
| 20260903155520 | 65 | 360 | 9.0 | 17.0 | 0.00 | 0.06 | 0.00 | 39 | 919.1 |
| 20260903155023 | 64 | 360 | 10.0 | 15.0 | 0.00 | 0.06 | 0.00 | 38 | 919.1 |
| 20260903154603 | 64 | 360 | 9.0 | 16.0 | 0.00 | 0.06 | 0.00 | 39 | 919.0 |
| 20260903154027 | 64 | 360 | 11.0 | 16.0 | 0.00 | 0.06 | 0.00 | 39 | 919.1 |
| 20260903153524 | 64 | 360 | 11.0 | 18.0 | 0.00 | 0.06 | 0.00 | 38 | 919.1 |
| 20260903153125 | 64 | 360 | 12.0 | 18.0 | 0.00 | 0.06 | 0.00 | 38 | 919.2 |
| 20260903152521 | 64 | 360 | 11.0 | 19.0 | 0.00 | 0.06 | 0.00 | 39 | 919.0 |
| 20260903152023 | 64 | 360 | 10.0 | 19.0 | 0.00 | 0.06 | 0.00 | 40 | 919.0 |
| 20260903151549 | 63 | 360 | 9.0 | 20.0 | 0.00 | 0.06 | 0.00 | 41 | 919.1 |
| 20260903151023 | 63 | 360 | 11.0 | 20.0 | 0.00 | 0.06 | 0.00 | 42 | 919.2 |
| 20260903150520 | 62 | 360 | 10.0 | 16.0 | 0.00 | 0.06 | 0.00 | 42 | 919.1 |
| 20260903150110 | 62 | 360 | 8.0 | 16.0 | 0.00 | 0.06 | 0.00 | 43 | 919.2 |
| 20260903145522 | 61 | 360 | 9.0 | 12.0 | 0.00 | 0.06 | 0.00 | 45 | 919.1 |
| 20260903145018 | 61 | 360 | 6.0 | 13.0 | 0.00 | 0.06 | 0.00 | 46 | 919.1 |
| 20260903144555 | 60 | 360 | 7.0 | 13.0 | 0.00 | 0.06 | 0.00 | 46 | 919.1 |
| 20260903144023 | 60 | 360 | 7.0 | 13.0 | 0.00 | 0.06 | 0.00 | 46 | 919.1 |
| 20260903143520 | 59 | 360 | 8.0 | 14.0 | 0.00 | 0.06 | 0.00 | 47 | 919.1 |
| 20260903143105 | 59 | 360 | 7.0 | 14.0 | 0.00 | 0.06 | 0.00 | 48 | 919.1 |
| 20260903142525 | 58 | 360 | 6.0 | 14.0 | 0.00 | 0.06 | 0.00 | 50 | 919.1 |
| 20260903142025 | 58 | 360 | 10.0 | 14.0 | 0.00 | 0.06 | 0.00 | 49 | 919.0 |
| 20260903141550 | 57 | 360 | 8.0 | 13.0 | 0.00 | 0.06 | 0.00 | 51 | 918.8 |
| 20260903141020 | 56 | 360 | 8.0 | 11.0 | 0.00 | 0.06 | 0.00 | 51 | 918.9 |
| 20260903140525 | 56 | 360 | 6.0 | 12.0 | 0.00 | 0.06 | 0.00 | 51 | 918.8 |
| 20260903140052 | 55 | 360 | 7.0 | 12.0 | 0.00 | 0.06 | 0.00 | 51 | 918.8 |
| 20260903135520 | 55 | 360 | 8.0 | 13.0 | 0.00 | 0.06 | 0.00 | 52 | 918.8 |
| 20260903135021 | 54 | 360 | 9.0 | 13.0 | 0.00 | 0.06 | 0.00 | 52 | 918.7 |
| 20260903134604 | 54 | 360 | 6.0 | 12.0 | 0.00 | 0.06 | 0.00 | 54 | 918.5 |
| 20260903134024 | 53 | 360 | 6.0 | 11.0 | 0.00 | 0.06 | 0.00 | 55 | 918.5 |
| 20260903133524 | 53 | 360 | 6.0 | 11.0 | 0.00 | 0.06 | 0.00 | 54 | 918.4 |
| 20260903133102 | 53 | 360 | 5.0 | 11.0 | 0.00 | 0.06 | 0.00 | 54 | 918.4 |
| 20260903132522 | 53 | 360 | 6.0 | 10.0 | 0.00 | 0.06 | 0.00 | 54 | 918.4 |
| 20260903132024 | 53 | 360 | 6.0 | 11.0 | 0.00 | 0.06 | 0.00 | 54 | 918.3 |
| 20260903131554 | 53 | 360 | 7.0 | 11.0 | 0.00 | 0.06 | 0.00 | 54 | 918.2 |
| 20260903131023 | 53 | 360 | 6.0 | 10.0 | 0.00 | 0.06 | 0.00 | 53 | 918.1 |
| 20260903130520 | 53 | 360 | 6.0 | 13.0 | 0.00 | 0.06 | 0.00 | 52 | 918.0 |
| 20260903125521 | 53 | 360 | 9.0 | 12.0 | 0.00 | 0.06 | 0.00 | 52 | 917.9 |
| 20260903125024 | 52 | 360 | 7.0 | 12.0 | 0.00 | 0.06 | 0.00 | 53 | 917.9 |
| 20260903124557 | 52 | 360 | 8.0 | 12.0 | 0.00 | 0.06 | 0.00 | 54 | 917.8 |
| 20260903124025 | 52 | 360 | 8.0 | 12.0 | 0.00 | 0.06 | 0.00 | 55 | 917.8 |
| 20260903123524 | 51 | 360 | 7.0 | 12.0 | 0.00 | 0.06 | 0.00 | 56 | 917.9 |
| 20260903123053 | 51 | 360 | 7.0 | 10.0 | 0.00 | 0.06 | 0.00 | 57 | 917.7 |
| 20260903122521 | 50 | 360 | 6.0 | 10.0 | 0.00 | 0.06 | 0.00 | 57 | 917.6 |
| 20260903122019 | 50 | 360 | 6.0 | 10.0 | 0.00 | 0.06 | 0.00 | 58 | 917.7 |
| 20260903121606 | 50 | 360 | 6.0 | 10.0 | 0.00 | 0.06 | 0.00 | 59 | 917.9 |
| 20260903121020 | 49 | 360 | 6.0 | 9.0 | 0.00 | 0.06 | 0.00 | 60 | 917.9 |
| 20260903120521 | 49 | 360 | 5.0 | 8.0 | 0.00 | 0.06 | 0.00 | 60 | 917.8 |
| 20260903120058 | 49 | 360 | 4.0 | 5.0 | 0.00 | 0.06 | 0.00 | 59 | 917.9 |
| 20260903115524 | 50 | 360 | 3.0 | 5.0 | 0.00 | 0.06 | 0.00 | 58 | 918.1 |
| 20260903115020 | 50 | 360 | 3.0 | 6.0 | 0.00 | 0.06 | 0.00 | 57 | 918.2 |
| 20260903114558 | 51 | 360 | 4.0 | 6.0 | 0.00 | 0.06 | 0.00 | 56 | 918.3 |
| 20260903114024 | 52 | 360 | 3.0 | 8.0 | 0.00 | 0.06 | 0.00 | 55 | 918.2 |
| 20260903113523 | 52 | 360 | 4.0 | 6.0 | 0.00 | 0.06 | 0.00 | 53 | 918.0 |
| 20260903113103 | 53 | 360 | 3.0 | 9.0 | 0.00 | 0.06 | 0.00 | 53 | 918.1 |
| 20260903112524 | 53 | 360 | 5.0 | 9.0 | 0.00 | 0.06 | 0.00 | 53 | 918.0 |
| 20260903112025 | 52 | 360 | 4.0 | 11.0 | 0.00 | 0.06 | 0.00 | 54 | 918.1 |
| 20260903111557 | 52 | 360 | 6.0 | 11.0 | 0.00 | 0.06 | 0.00 | 54 | 918.1 |
| 20260903111027 | 52 | 360 | 6.0 | 9.0 | 0.00 | 0.06 | 0.00 | 55 | 918.1 |
| 20260903110525 | 52 | 360 | 5.0 | 10.0 | 0.00 | 0.06 | 0.00 | 55 | 918.1 |
| 20260903110058 | 53 | 360 | 5.0 | 10.0 | 0.00 | 0.06 | 0.00 | 53 | 918.2 |
| 20260903105528 | 54 | 360 | 5.0 | 12.0 | 0.00 | 0.06 | 0.00 | 52 | 918.0 |
| 20260903105017 | 54 | 360 | 6.0 | 12.0 | 0.00 | 0.06 | 0.00 | 51 | 918.0 |
| 20260903104612 | 54 | 360 | 7.0 | 14.0 | 0.00 | 0.06 | 0.00 | 50 | 918.0 |
| 20260903104020 | 55 | 360 | 9.0 | 14.0 | 0.00 | 0.06 | 0.00 | 50 | 917.9 |
| 20260903103520 | 55 | 360 | 9.0 | 14.0 | 0.00 | 0.06 | 0.00 | 50 | 917.9 |
| 20260903103100 | 55 | 360 | 9.0 | 14.0 | 0.00 | 0.06 | 0.00 | 50 | 917.8 |
| 20260903102523 | 55 | 360 | 9.0 | 16.0 | 0.00 | 0.06 | 0.00 | 50 | 917.6 |
| 20260903102025 | 54 | 360 | 9.0 | 16.0 | 0.00 | 0.06 | 0.00 | 51 | 917.7 |
| 20260903101600 | 54 | 360 | 10.0 | 14.0 | 0.00 | 0.06 | 0.00 | 52 | 917.6 |
| 20260903101024 | 53 | 360 | 9.0 | 13.0 | 0.00 | 0.06 | 0.00 | 54 | 917.7 |
| 20260903100517 | 53 | 360 | 5.0 | 10.0 | 0.00 | 0.06 | 0.00 | 55 | 917.6 |
| 20260903100048 | 52 | 360 | 5.0 | 10.0 | 0.00 | 0.06 | 0.00 | 55 | 917.8 |
| 20260903095522 | 53 | 360 | 6.0 | 11.0 | 0.00 | 0.06 | 0.00 | 55 | 917.9 |
| 20260903095019 | 53 | 360 | 6.0 | 11.0 | 0.00 | 0.06 | 0.00 | 54 | 917.8 |
| 20260903094551 | 53 | 360 | 6.0 | 11.0 | 0.00 | 0.06 | 0.00 | 55 | 917.7 |
| 20260903094021 | 53 | 360 | 6.0 | 11.0 | 0.00 | 0.06 | 0.00 | 55 | 917.8 |
| 20260903093524 | 53 | 360 | 7.0 | 10.0 | 0.00 | 0.06 | 0.00 | 55 | 917.6 |
| 20260903093102 | 53 | 360 | 6.0 | 10.0 | 0.00 | 0.06 | 0.00 | 56 | 917.7 |
| 20260903092525 | 53 | 360 | 6.0 | 9.0 | 0.00 | 0.06 | 0.00 | 56 | 917.8 |
| 20260903092022 | 53 | 360 | 5.0 | 8.0 | 0.00 | 0.06 | 0.00 | 56 | 917.6 |
| 20260903091539 | 53 | 360 | 5.0 | 8.0 | 0.00 | 0.06 | 0.00 | 56 | 917.6 |
| 20260903091015 | 53 | 360 | 5.0 | 9.0 | 0.00 | 0.06 | 0.00 | 55 | 917.6 |
| 20260903090517 | 53 | 360 | 4.0 | 9.0 | 0.00 | 0.06 | 0.00 | 55 | 917.6 |
| 20260903090036 | 54 | 360 | 5.0 | 10.0 | 0.00 | 0.06 | 0.00 | 54 | 917.7 |
| 20260903085518 | 53 | 360 | 7.0 | 10.0 | 0.00 | 0.06 | 0.00 | 55 | 917.5 |
| 20260903085018 | 53 | 360 | 7.0 | 9.0 | 0.00 | 0.06 | 0.00 | 56 | 917.6 |
| 20260903084543 | 53 | 360 | 5.0 | 12.0 | 0.00 | 0.06 | 0.00 | 56 | 917.4 |
| 20260903084018 | 52 | 360 | 6.0 | 12.0 | 0.00 | 0.06 | 0.00 | 57 | 917.4 |
| 20260903083518 | 52 | 360 | 9.0 | 12.0 | 0.00 | 0.06 | 0.00 | 59 | 917.5 |
| 20260903083034 | 52 | 360 | 5.0 | 6.0 | 0.00 | 0.06 | 0.00 | 58 | 917.4 |
| 20260903082516 | 53 | 360 | 3.0 | 8.0 | 0.00 | 0.06 | 0.00 | 57 | 917.3 |
| 20260903082016 | 53 | 360 | 4.0 | 9.0 | 0.00 | 0.06 | 0.00 | 56 | 917.2 |
| 20260903081535 | 54 | 360 | 5.0 | 10.0 | 0.00 | 0.06 | 0.00 | 56 | 917.2 |
| 20260903081020 | 54 | 360 | 5.0 | 11.0 | 0.00 | 0.06 | 0.00 | 55 | 917.3 |
| 20260903080519 | 54 | 360 | 5.0 | 10.0 | 0.00 | 0.06 | 0.00 | 56 | 917.2 |
| 20260903080036 | 54 | 360 | 6.0 | 10.0 | 0.00 | 0.06 | 0.00 | 57 | 917.2 |
| 20260903075516 | 54 | 360 | 5.0 | 11.0 | 0.00 | 0.06 | 0.00 | 57 | 917.3 |
| 20260903075016 | 54 | 360 | 7.0 | 11.0 | 0.00 | 0.06 | 0.00 | 57 | 917.1 |
| 20260903074534 | 55 | 360 | 6.0 | 10.0 | 0.00 | 0.06 | 0.00 | 56 | 917.1 |
| 20260903074018 | 55 | 360 | 7.0 | 10.0 | 0.00 | 0.06 | 0.00 | 55 | 917.2 |
| 20260903073519 | 55 | 360 | 6.0 | 12.0 | 0.00 | 0.06 | 0.00 | 56 | 917.1 |
| 20260903073036 | 56 | 360 | 4.0 | 12.0 | 0.00 | 0.06 | 0.00 | 54 | 917.2 |
| 20260903072517 | 55 | 360 | 6.0 | 11.0 | 0.00 | 0.06 | 0.00 | 53 | 917.1 |
| 20260903072018 | 55 | 360 | 6.0 | 11.0 | 0.00 | 0.06 | 0.00 | 56 | 917.1 |
| 20260903071535 | 55 | 360 | 7.0 | 11.0 | 0.00 | 0.06 | 0.00 | 56 | 917.0 |
| 20260903071017 | 55 | 360 | 7.0 | 11.0 | 0.00 | 0.06 | 0.00 | 56 | 917.0 |
| 20260903070519 | 55 | 360 | 7.0 | 13.0 | 0.00 | 0.06 | 0.00 | 55 | 917.0 |
| 20260903070035 | 55 | 360 | 8.0 | 14.0 | 0.00 | 0.06 | 0.00 | 54 | 916.9 |
| 20260903065517 | 55 | 360 | 8.0 | 15.0 | 0.00 | 0.06 | 0.00 | 55 | 916.8 |
| 20260903065018 | 55 | 360 | 8.0 | 13.0 | 0.00 | 0.06 | 0.00 | 56 | 916.9 |
| 20260903064540 | 55 | 360 | 8.0 | 14.0 | 0.00 | 0.06 | 0.00 | 56 | 917.0 |
| 20260903064018 | 55 | 360 | 9.0 | 16.0 | 0.00 | 0.06 | 0.00 | 56 | 917.1 |
| 20260903063517 | 55 | 360 | 11.0 | 16.0 | 0.00 | 0.06 | 0.00 | 57 | 917.2 |
| 20260903063039 | 54 | 360 | 9.0 | 16.0 | 0.00 | 0.06 | 0.00 | 59 | 917.3 |
| 20260903062518 | 54 | 360 | 10.0 | 17.0 | 0.00 | 0.06 | 0.00 | 59 | 917.3 |
| 20260903062018 | 55 | 360 | 11.0 | 17.0 | 0.00 | 0.06 | 0.00 | 59 | 917.2 |
| 20260903061534 | 54 | 360 | 11.0 | 19.0 | 0.00 | 0.06 | 0.00 | 59 | 917.2 |
| 20260903061018 | 54 | 360 | 10.0 | 19.0 | 0.00 | 0.06 | 0.00 | 59 | 917.1 |
| 20260903060517 | 54 | 360 | 10.0 | 17.0 | 0.01 | 0.06 | 0.00 | 60 | 917.1 |
| 20260903060043 | 54 | 360 | 9.0 | 16.0 | 0.01 | 0.06 | 0.00 | 62 | 917.3 |
| 20260903055518 | 53 | 360 | 8.0 | 13.0 | 0.01 | 0.06 | 0.06 | 63 | 917.3 |
| 20260903055017 | 53 | 360 | 7.0 | 13.0 | 0.02 | 0.06 | 0.06 | 64 | 917.5 |
| 20260903054537 | 53 | 360 | 7.0 | 13.0 | 0.02 | 0.06 | 0.06 | 64 | 917.4 |
| 20260903054018 | 53 | 360 | 7.0 | 12.0 | 0.02 | 0.06 | 0.06 | 65 | 917.6 |
| 20260903053516 | 53 | 360 | 7.0 | 11.0 | 0.02 | 0.06 | 0.06 | 66 | 917.7 |
| 20260903053039 | 52 | 360 | 5.0 | 10.0 | 0.02 | 0.06 | 0.06 | 67 | 917.7 |
| 20260903052518 | 52 | 360 | 4.0 | 8.0 | 0.02 | 0.06 | 0.06 | 67 | 917.8 |
| 20260903052016 | 53 | 360 | 4.0 | 8.0 | 0.02 | 0.06 | 0.06 | 67 | 917.8 |
| 20260903051545 | 52 | 360 | 4.0 | 8.0 | 0.02 | 0.06 | 0.06 | 68 | 917.8 |
| 20260903051021 | 53 | 360 | 4.0 | 10.0 | 0.02 | 0.06 | 0.06 | 67 | 917.9 |
| 20260903050517 | 53 | 360 | 5.0 | 11.0 | 0.02 | 0.04 | 0.04 | 67 | 918.1 |
| 20260903050049 | 53 | 360 | 6.0 | 14.0 | 0.02 | 0.04 | 0.04 | 67 | 918.2 |
| 20260903045518 | 53 | 360 | 8.0 | 14.0 | 0.01 | 0.04 | 0.04 | 66 | 918.4 |
| 20260903045016 | 53 | 360 | 9.0 | 15.0 | 0.01 | 0.04 | 0.04 | 66 | 918.2 |
| 20260903044546 | 53 | 360 | 9.0 | 15.0 | 0.01 | 0.04 | 0.04 | 66 | 918.2 |
| 20260903044016 | 53 | 360 | 10.0 | 18.0 | 0.01 | 0.04 | 0.04 | 65 | 918.2 |
| 20260903043517 | 53 | 360 | 10.0 | 18.0 | 0.02 | 0.04 | 0.04 | 65 | 918.3 |
| 20260903043041 | 53 | 360 | 13.0 | 18.0 | 0.02 | 0.04 | 0.04 | 65 | 918.3 |
| 20260903042518 | 53 | 360 | 11.0 | 24.0 | 0.02 | 0.04 | 0.04 | 65 | 918.3 |
| 20260903042019 | 53 | 360 | 12.0 | 24.0 | 0.02 | 0.04 | 0.04 | 65 | 918.6 |
| 20260903041547 | 53 | 360 | 14.0 | 20.0 | 0.02 | 0.04 | 0.04 | 65 | 918.3 |
| 20260903041018 | 53 | 360 | 14.0 | 20.0 | 0.02 | 0.04 | 0.04 | 64 | 918.4 |
| 20260903040518 | 53 | 360 | 13.0 | 20.0 | 0.01 | 0.03 | 0.03 | 64 | 918.4 |
| 20260903040044 | 53 | 360 | 12.0 | 21.0 | 0.01 | 0.03 | 0.03 | 64 | 918.4 |
| 20260903035517 | 53 | 360 | 13.0 | 21.0 | 0.01 | 0.03 | 0.03 | 63 | 918.3 |
| 20260903035017 | 53 | 360 | 12.0 | 19.0 | 0.01 | 0.03 | 0.03 | 64 | 918.2 |
| 20260903034540 | 53 | 360 | 9.0 | 15.0 | 0.01 | 0.03 | 0.03 | 64 | 918.3 |
| 20260903034019 | 53 | 360 | 10.0 | 24.0 | 0.01 | 0.03 | 0.03 | 63 | 918.3 |
| 20260903033519 | 54 | 360 | 11.0 | 24.0 | 0.00 | 0.02 | 0.02 | 61 | 918.1 |
| 20260903033046 | 55 | 360 | 13.0 | 23.0 | 0.00 | 0.02 | 0.02 | 57 | 918.2 |
| 20260903032521 | 56 | 360 | 15.0 | 23.0 | 0.00 | 0.02 | 0.02 | 53 | 918.5 |
| 20260903032017 | 57 | 360 | 13.0 | 21.0 | 0.00 | 0.02 | 0.02 | 50 | 918.4 |
| 20260903031547 | 57 | 360 | 10.0 | 21.0 | 0.00 | 0.02 | 0.02 | 49 | 918.3 |
| 20260903031018 | 57 | 360 | 14.0 | 21.0 | 0.00 | 0.02 | 0.02 | 48 | 918.2 |
| 20260903030523 | 57 | 360 | 13.0 | 19.0 | 0.00 | 0.02 | 0.02 | 49 | 918.1 |
| 20260903030055 | 57 | 360 | 10.0 | 20.0 | 0.00 | 0.02 | 0.02 | 49 | 917.9 |
| 20260903025515 | 57 | 360 | 12.0 | 20.0 | 0.00 | 0.02 | 0.02 | 48 | 917.9 |
| 20260903025015 | 58 | 360 | 13.0 | 20.0 | 0.00 | 0.02 | 0.02 | 46 | 917.8 |
| 20260903024548 | 58 | 360 | 12.0 | 18.0 | 0.00 | 0.02 | 0.02 | 46 | 917.9 |
| 20260903024018 | 58 | 360 | 11.0 | 18.0 | 0.00 | 0.02 | 0.02 | 46 | 917.8 |
| 20260903023521 | 57 | 360 | 10.0 | 18.0 | 0.00 | 0.02 | 0.02 | 46 | 917.7 |
| 20260903023044 | 57 | 360 | 12.0 | 18.0 | 0.00 | 0.02 | 0.02 | 46 | 917.8 |
| 20260903022518 | 57 | 360 | 13.0 | 18.0 | 0.00 | 0.02 | 0.02 | 46 | 917.8 |
| 20260903022018 | 57 | 360 | 10.0 | 18.0 | 0.00 | 0.02 | 0.02 | 47 | 918.0 |
| 20260903021545 | 57 | 360 | 10.0 | 20.0 | 0.00 | 0.02 | 0.02 | 47 | 918.2 |
| 20260903021017 | 57 | 360 | 12.0 | 19.0 | 0.00 | 0.02 | 0.02 | 48 | 918.1 |
| 20260903020518 | 56 | 360 | 10.0 | 18.0 | 0.00 | 0.02 | 0.02 | 49 | 918.2 |
| 20260903020100 | 56 | 360 | 10.0 | 18.0 | 0.00 | 0.02 | 0.02 | 50 | 918.3 |
| 20260903015518 | 56 | 360 | 10.0 | 20.0 | 0.00 | 0.02 | 0.02 | 49 | 918.2 |
| 20260903015017 | 57 | 360 | 11.0 | 20.0 | 0.00 | 0.02 | 0.02 | 49 | 918.2 |
| 20260903014551 | 57 | 360 | 13.0 | 20.0 | 0.00 | 0.02 | 0.02 | 49 | 918.0 |
| 20260903014016 | 57 | 360 | 13.0 | 23.0 | 0.00 | 0.02 | 0.02 | 48 | 917.9 |
| 20260903013518 | 57 | 360 | 15.0 | 30.0 | 0.00 | 0.02 | 0.02 | 48 | 917.6 |
| 20260903013050 | 57 | 360 | 15.0 | 30.0 | 0.00 | 0.02 | 0.02 | 48 | 917.6 |
| 20260903012519 | 57 | 360 | 20.0 | 26.0 | 0.00 | 0.02 | 0.02 | 48 | 917.5 |
| 20260903012018 | 57 | 360 | 18.0 | 30.0 | 0.00 | 0.02 | 0.02 | 49 | 917.5 |
| 20260903011542 | 57 | 360 | 19.0 | 30.0 | 0.00 | 0.02 | 0.02 | 49 | 917.2 |
| 20260903011018 | 57 | 360 | 17.0 | 28.0 | 0.00 | 0.02 | 0.02 | 49 | 917.1 |
| 20260903010520 | 57 | 360 | 17.0 | 27.0 | 0.00 | 0.02 | 0.02 | 50 | 917.0 |
| 20260903010052 | 57 | 360 | 16.0 | 25.0 | 0.00 | 0.02 | 0.02 | 51 | 916.7 |
| 20260903005518 | 58 | 360 | 16.0 | 26.0 | 0.00 | 0.02 | 0.02 | 51 | 916.5 |
| 20260903005020 | 58 | 360 | 16.0 | 25.0 | 0.00 | 0.02 | 0.02 | 51 | 916.5 |
| 20260903004550 | 58 | 360 | 16.0 | 24.0 | 0.00 | 0.02 | 0.02 | 51 | 916.6 |
| 20260903004016 | 58 | 360 | 12.0 | 22.0 | 0.00 | 0.02 | 0.02 | 52 | 916.7 |
| 20260903003518 | 58 | 360 | 12.0 | 24.0 | 0.00 | 0.02 | 0.02 | 52 | 916.4 |
| 20260903003047 | 57 | 360 | 14.0 | 24.0 | 0.00 | 0.02 | 0.02 | 52 | 916.5 |
| 20260903002521 | 57 | 360 | 12.0 | 23.0 | 0.00 | 0.02 | 0.02 | 53 | 916.2 |
| 20260903002022 | 58 | 360 | 12.0 | 22.0 | 0.00 | 0.02 | 0.02 | 52 | 916.7 |
| 20260903001607 | 58 | 360 | 13.0 | 21.0 | 0.00 | 0.02 | 0.02 | 52 | 917.1 |
| 20260903001017 | 58 | 360 | 14.0 | 23.0 | 0.00 | 0.02 | 0.02 | 51 | 917.3 |
| 20260903000518 | 58 | 360 | 14.0 | 23.0 | 0.00 | 0.02 | 0.02 | 51 | 917.3 |
| 20260903000057 | 58 | 360 | 15.0 | 23.0 | 0.00 | 0.02 | 0.02 | 51 | 917.5 |
| 20260902235520 | 58 | 360 | 11.0 | 27.0 | 0.00 | 0.02 | 0.02 | 53 | 917.6 |
| 20260902235021 | 58 | 360 | 18.0 | 30.0 | 0.00 | 0.02 | 0.02 | 52 | 917.7 |
| 20260902234548 | 58 | 360 | 19.0 | 30.0 | 0.00 | 0.02 | 0.02 | 53 | 917.9 |
| 20260902234027 | 59 | 360 | 16.0 | 24.0 | 0.02 | 0.02 | 0.02 | 54 | 917.6 |
| 20260902233519 | 59 | 360 | 16.0 | 24.0 | 0.02 | 0.02 | 0.02 | 55 | 917.4 |
| 20260902233048 | 58 | 360 | 17.0 | 27.0 | 0.02 | 0.02 | 0.02 | 55 | 917.3 |
| 20260902232521 | 58 | 360 | 18.0 | 29.0 | 0.02 | 0.02 | 0.02 | 55 | 916.9 |
| 20260902232018 | 58 | 360 | 19.0 | 34.0 | 0.02 | 0.02 | 0.02 | 56 | 916.8 |
| 20260902231553 | 58 | 360 | 21.0 | 34.0 | 0.02 | 0.02 | 0.02 | 57 | 916.6 |
| 20260902231017 | 58 | 360 | 21.0 | 29.0 | 0.02 | 0.02 | 0.02 | 58 | 916.4 |
| 20260902230515 | 58 | 360 | 19.0 | 29.0 | 0.02 | 0.02 | 0.02 | 59 | 916.3 |
| 20260902230050 | 58 | 360 | 21.0 | 30.0 | 0.02 | 0.02 | 0.02 | 61 | 916.3 |
| 20260902225516 | 58 | 360 | 18.0 | 30.0 | 0.02 | 0.02 | 0.02 | 62 | 916.2 |
| 20260902225016 | 57 | 360 | 18.0 | 37.0 | 0.02 | 0.02 | 0.02 | 62 | 916.4 |
| 20260902224546 | 59 | 360 | 26.0 | 42.0 | 0.02 | 0.02 | 0.02 | 56 | 915.8 |
| 20260902224020 | 64 | 360 | 30.0 | 55.0 | 0.00 | 0.00 | 0.00 | 40 | 915.9 |
| 20260902223519 | 69 | 360 | 34.0 | 55.0 | 0.00 | 0.00 | 0.00 | 28 | 915.1 |
| 20260902223056 | 76 | 360 | 30.0 | 46.0 | 0.00 | 0.00 | 0.00 | 21 | 915.9 |
| 20260902222518 | 79 | 360 | 5.0 | 12.0 | 0.00 | 0.00 | 0.00 | 19 | 914.7 |
| 20260902222022 | 79 | 360 | 7.0 | 13.0 | 0.00 | 0.00 | 0.00 | 19 | 914.7 |
| 20260902221610 | 79 | 360 | 8.0 | 13.0 | 0.00 | 0.00 | 0.00 | 19 | 914.6 |
| 20260902221020 | 80 | 360 | 8.0 | 12.0 | 0.00 | 0.00 | 0.00 | 19 | 914.7 |
| 20260902220516 | 80 | 360 | 6.0 | 10.0 | 0.00 | 0.00 | 0.00 | 19 | 914.6 |
| 20260902220101 | 80 | 360 | 5.0 | 10.0 | 0.00 | 0.00 | 0.00 | 19 | 914.9 |
| 20260902215518 | 80 | 360 | 4.0 | 11.0 | 0.00 | 0.00 | 0.00 | 19 | 915.0 |
| 20260902215017 | 79 | 360 | 7.0 | 14.0 | 0.00 | 0.00 | 0.00 | 19 | 915.2 |
| 20260902214551 | 79 | 360 | 10.0 | 13.0 | 0.00 | 0.00 | 0.00 | 19 | 915.2 |
| 20260902214018 | 79 | 360 | 10.0 | 12.0 | 0.00 | 0.00 | 0.00 | 19 | 915.3 |
| 20260902213518 | 79 | 360 | 4.0 | 8.0 | 0.00 | 0.00 | 0.00 | 20 | 915.4 |
| 20260902213053 | 79 | 360 | 3.0 | 10.0 | 0.00 | 0.00 | 0.00 | 20 | 915.6 |
| 20260902212519 | 79 | 360 | 3.0 | 9.0 | 0.00 | 0.00 | 0.00 | 20 | 915.7 |
| 20260902212018 | 79 | 360 | 3.0 | 16.0 | 0.00 | 0.00 | 0.00 | 19 | 915.9 |
| 20260902211558 | 80 | 360 | 7.0 | 16.0 | 0.00 | 0.00 | 0.00 | 19 | 915.7 |
| 20260902211018 | 81 | 360 | 8.0 | 14.0 | 0.00 | 0.00 | 0.00 | 18 | 915.6 |
| 20260902210518 | 81 | 360 | 4.0 | 11.0 | 0.00 | 0.00 | 0.00 | 18 | 916.1 |
| 20260902210053 | 82 | 360 | 1.0 | 9.0 | 0.00 | 0.00 | 0.00 | 18 | 916.3 |
| 20260902205517 | 81 | 360 | 3.0 | 13.0 | 0.00 | 0.00 | 0.00 | 19 | 916.1 |
| 20260902205020 | 80 | 360 | 4.0 | 14.0 | 0.00 | 0.00 | 0.00 | 21 | 916.2 |
| 20260902204608 | 80 | 360 | 10.0 | 17.0 | 0.00 | 0.00 | 0.00 | 20 | 916.3 |
| 20260902204018 | 80 | 360 | 4.0 | 14.0 | 0.00 | 0.00 | 0.00 | 20 | 916.6 |
| 20260902203520 | 80 | 360 | 6.0 | 12.0 | 0.00 | 0.00 | 0.00 | 20 | 916.6 |
| 20260902203050 | 80 | 360 | 3.0 | 9.0 | 0.00 | 0.00 | 0.00 | 20 | 916.7 |
| 20260902202517 | 79 | 360 | 6.0 | 10.0 | 0.00 | 0.00 | 0.00 | 21 | 916.7 |
| 20260902202019 | 80 | 360 | 7.0 | 25.0 | 0.00 | 0.00 | 0.00 | 20 | 916.7 |
| 20260902201553 | 80 | 360 | 12.0 | 25.0 | 0.00 | 0.00 | 0.00 | 21 | 916.7 |
| 20260902201024 | 79 | 360 | 1.0 | 14.0 | 0.00 | 0.00 | 0.00 | 20 | 917.0 |
| 20260902200516 | 79 | 360 | 8.0 | 14.0 | 0.00 | 0.00 | 0.00 | 20 | 917.0 |
| 20260902200109 | 79 | 360 | 5.0 | 12.0 | 0.00 | 0.00 | 0.00 | 20 | 917.1 |
| 20260902195519 | 79 | 360 | 2.0 | 12.0 | 0.00 | 0.00 | 0.00 | 20 | 917.0 |
| 20260902195024 | 79 | 360 | 6.0 | 15.0 | 0.00 | 0.00 | 0.00 | 20 | 917.1 |
| 20260902194620 | 79 | 360 | 9.0 | 14.0 | 0.00 | 0.00 | 0.00 | 20 | 917.0 |
| 20260902194017 | 78 | 360 | 3.0 | 14.0 | 0.00 | 0.00 | 0.00 | 20 | 917.1 |
| 20260902193519 | 79 | 360 | 5.0 | 13.0 | 0.00 | 0.00 | 0.00 | 20 | 917.2 |
| 20260902193059 | 78 | 360 | 6.0 | 13.0 | 0.00 | 0.00 | 0.00 | 20 | 917.1 |